VKG1649 ENBR-ESSA

Flight info

Callsign VKG1649
Flight time N/A
Altitude 40000
Route GOKAB DCT ELTOK
Aircraft A333/H-SDE3GHIJ2J3J5M1RVWXY/LB2D1

Departure

Time 2026-04-28 14:07
Airport Bergen Airport, Flesland (ENBR)

Arrival

Time N/A
Airport Stockholm-Arlanda Airport (ESSA)
Time Latitude Longitude Altitude Speed Heading
2026-04-28 13:40 60.28280 5.22696 151 ft 0 kts 154°
2026-04-28 14:00 60.28293 5.22684 151 ft 4 kts 149°
2026-04-28 14:00 60.28316 5.22655 151 ft 4 kts 139°
2026-04-28 14:01 60.28335 5.22618 151 ft 4 kts 142°
2026-04-28 14:01 60.28352 5.22592 152 ft 2 kts 176°
2026-04-28 14:01 60.28353 5.22592 152 ft 0 kts 177°
2026-04-28 14:03 60.28350 5.22592 152 ft 2 kts 177°
2026-04-28 14:03 60.28330 5.22584 151 ft 4 kts 195°
2026-04-28 14:04 60.28312 5.22554 151 ft 6 kts 219°
2026-04-28 14:04 60.28273 5.22497 151 ft 8 kts 200°
2026-04-28 14:04 60.28209 5.22516 150 ft 11 kts 170°
2026-04-28 14:04 60.28129 5.22542 150 ft 11 kts 171°
2026-04-28 14:05 60.28065 5.22530 149 ft 4 kts 205°
2026-04-28 14:05 60.28044 5.22468 149 ft 7 kts 245°
2026-04-28 14:05 60.28049 5.22356 147 ft 10 kts 280°
2026-04-28 14:05 60.28089 5.22241 147 ft 10 kts 333°
2026-04-28 14:06 60.28110 5.22229 147 ft 0 kts 349°
2026-04-28 14:06 60.28312 5.22163 152 ft 69 kts 351°
2026-04-28 14:06 60.29036 5.21916 157 ft 137 kts 350°
2026-04-28 14:07 60.30073 5.21588 599 ft 153 kts 349°
2026-04-28 14:07 60.31140 5.21265 1370 ft 157 kts 349°
2026-04-28 14:07 60.32230 5.20904 2030 ft 166 kts 348°
2026-04-28 14:07 60.33434 5.20466 2453 ft 187 kts 348°
2026-04-28 14:08 60.34792 5.19959 2899 ft 208 kts 349°
2026-04-28 14:08 60.36272 5.19401 3357 ft 225 kts 349°
2026-04-28 14:08 60.37897 5.18826 3808 ft 248 kts 351°
2026-04-28 14:08 60.39642 5.18291 4463 ft 255 kts 352°
2026-04-28 14:09 60.41368 5.17754 5455 ft 251 kts 351°
2026-04-28 14:09 60.43103 5.17185 6276 ft 253 kts 350°
2026-04-28 14:09 60.44854 5.16592 7025 ft 258 kts 350°
2026-04-28 14:09 60.46637 5.16402 7836 ft 258 kts
2026-04-28 14:10 60.48302 5.17753 8685 ft 262 kts 32°
2026-04-28 14:10 60.49537 5.20449 9463 ft 272 kts 56°
2026-04-28 14:10 60.50112 5.24153 10290 ft 281 kts 77°
2026-04-28 14:10 60.50140 5.28196 10956 ft 295 kts 96°
2026-04-28 14:11 60.49338 5.32095 11679 ft 309 kts 120°
2026-04-28 14:11 60.47778 5.35157 12386 ft 321 kts 144°
2026-04-28 14:11 60.45678 5.36929 12957 ft 335 kts 165°
2026-04-28 14:11 60.43311 5.37808 13181 ft 356 kts 171°
2026-04-28 14:12 60.40883 5.39247 13396 ft 373 kts 152°
2026-04-28 14:12 60.38760 5.42263 13895 ft 374 kts 132°
2026-04-28 14:12 60.37222 5.46459 14449 ft 370 kts 112°
2026-04-28 14:12 60.36447 5.51334 15053 ft 360 kts 92°
2026-04-28 14:13 60.36490 5.56302 15635 ft 351 kts 73°
2026-04-28 14:13 60.37258 5.60847 16203 ft 344 kts 60°
2026-04-28 14:13 60.38213 5.65303 16775 ft 349 kts 62°
2026-04-28 14:13 60.38976 5.70014 17359 ft 356 kts 69°
2026-04-28 14:14 60.39506 5.74956 17964 ft 363 kts 73°
2026-04-28 14:14 60.39885 5.80042 18530 ft 368 kts 76°
2026-04-28 14:14 60.40189 5.85198 19080 ft 372 kts 77°
2026-04-28 14:14 60.40468 5.90414 19637 ft 374 kts 77°
2026-04-28 14:15 60.40749 5.95673 20172 ft 377 kts 77°
2026-04-28 14:15 60.41034 6.00970 20693 ft 380 kts 77°
2026-04-28 14:15 60.41325 6.06308 21213 ft 383 kts 77°
2026-04-28 14:15 60.41619 6.11683 21734 ft 386 kts 77°
2026-04-28 14:16 60.41913 6.17114 22316 ft 389 kts 77°
2026-04-28 14:16 60.42206 6.22582 22806 ft 393 kts 77°
2026-04-28 14:16 60.42502 6.28102 23354 ft 394 kts 77°
2026-04-28 14:16 60.42795 6.33660 23790 ft 400 kts 77°
2026-04-28 14:17 60.43086 6.39268 24296 ft 401 kts 77°
2026-04-28 14:17 60.43307 6.44947 24744 ft 408 kts 82°
2026-04-28 14:17 60.43234 6.50640 25211 ft 413 kts 86°
2026-04-28 14:17 60.43100 6.56482 25660 ft 416 kts 85°
2026-04-28 14:18 60.42977 6.62340 26123 ft 418 kts 85°
2026-04-28 14:18 60.42861 6.68251 26586 ft 420 kts 85°
2026-04-28 14:18 60.42748 6.74169 27062 ft 423 kts 84°
2026-04-28 14:18 60.42632 6.80138 27605 ft 424 kts 84°
2026-04-28 14:19 60.42503 6.86144 27958 ft 428 kts 84°
2026-04-28 14:19 60.42385 6.92170 28431 ft 429 kts 84°
2026-04-28 14:19 60.42272 6.98225 28838 ft 432 kts 84°
2026-04-28 14:19 60.42151 7.04333 29272 ft 435 kts 84°
2026-04-28 14:20 60.42021 7.10463 29690 ft 437 kts 84°
2026-04-28 14:20 60.41890 7.16573 30098 ft 439 kts 84°
2026-04-28 14:20 60.41748 7.22751 30507 ft 440 kts 83°
2026-04-28 14:20 60.41613 7.28975 30791 ft 445 kts 84°
2026-04-28 14:21 60.41460 7.35254 31114 ft 447 kts 84°
2026-04-28 14:21 60.41299 7.41543 31519 ft 448 kts 84°
2026-04-28 14:21 60.41132 7.47853 32019 ft 448 kts 83°
2026-04-28 14:21 60.40967 7.54171 32366 ft 451 kts 83°
2026-04-28 14:22 60.40803 7.60524 32712 ft 453 kts 83°
2026-04-28 14:22 60.40636 7.66914 33029 ft 455 kts 83°